[sarex] 2 Line ISS Keps 11-19

Dave Larsen PhD doc at volcano.net
Sat Nov 18 18:09:15 PST 2006


ISS
1 25544U 98067A   06322.98842593  .00018062  00000-0  10640-3 0   937
2 25544 051.6324 109.5666 0011248 231.8242 258.7157 15.78208629457586


More information about the SAREX mailing list